Hlavní strana
METAR-TAF:

METAR-TAF

Letiště :

Sparta Community Airport (Hunter Field)

Sparta, Illinois, Spojené státy americké

zeměpisná šířka: 38-08-56N, zeměpisná délka: 089-41-55W, výška: 164 m

Aktuální stav počasí

Zpráva byla vytvořena před 19 minutami, v 09:15 UTC
Západojihozápadní vítr 16 kt s nárazy do 23 kt
Teplota 14°C
Vlhkost vzduchu 51%
Tlak 1006 hPa
Viditelnost: 16.1 km
Jasno

METAR: KSAR 290915Z AUTO 25016G23KT 10SM CLR 14/04 A2971 RMK AO2 T01350036

Čas: 04:34 (09:34 UTC)


TAF: chybějící

Stav a předpovědi počasí z více než 4 000 letišť (zprávy METAR a TAF).

Červené a žluté tečky na mapě představují dostupné meteorologické stanice.

Když kurzor umístíte na tečku, zobrazí se název stanice.

Pak kliknutím zobrazíte stav a předpověď počasí.

Chcete-li změnit mapu, kliknutím na zelené tlačítko se znaménkem +mapu přiblížíte, kliknutím na zelené tlačítko se znaménkem – mapu oddálíte a kliknutím na zelené šipky přejdete na sousední mapy.


METAR-TAF: